Terug naar catalogus

STARLINK-34859

ActiefCommunicatieVLEO
NORAD 65348·PAYLOAD·🇺🇸 United States

Gelanceerd Aug 27, 2025 vanaf Cape Canaveral Space Force Station

Loading…

Volgende Passages (komende 24 uur)

TLE

VersSource: CelesTrak SupGP

Epoch: Sep 15, 2026, 03:44 UTC

1 65348C 25189AB  26258.15604167  .00010394  00000+0  30710-3 0  2582
2 65348  53.1600  44.5406 0001179  91.8927 325.4198 15.34384921    13

Volg STARLINK-34859 in realtime met AllMySat

Download on the App Store